User: anonymous   Login
Location: Holbach
(51.5399°N, 10.6036°E)
Time: 21:59:09
(UTC+00:00)
Language:

ATLAS 2AS CENTAUR R/B - Orbit

View from above orbital plane
View from above orbital plane
View from above satellite
View from above satellite

Ground track
Ground track

The orbit data is extracted from the following two-line orbital elements,

1 28096U 03054B   21207.94305733 0.00000000  00000-0  00000-0 0    06
2 28096  63.6755 225.3312 0209577 214.6315 145.3684 13.40872255    07
Epoch (UTC): 26 July 2021 22:38:00
Eccentricity: 0.0209577
inclination: 63.6755°
perigee height: 949 km
apogee height: 1263 km
right ascension of ascending node: 225.3312°
argument of perigee: 214.6315°
revolutions per day: 13.40872255
mean anomaly at epoch: 145.3684°
orbit number at epoch: 0

The dashed part of the orbit path shows where the satellite is in the earth's shadow,  

DLR